Garnett Industrial Airport (K68)
Garnett, KS
Field Elevation: 989
Lat: 38°16.64N  Long: 95°12.91W
CTAF/Unicom Freq: 122.8000
   
     For Weather-by-Phone, call 785-448-3254
Weather Advisories
9/21/2014 14:00 Z
Altimeter 30.18" Hg
Wind 360° @ 3 KT
Gusts --
Visibility 10 SM
Temperature 19° C (66° F)
Dewpoint 14° C (57° F)
Relative Humidity 75%
Density Altitude --
Condensation Altitude 3,200 feet
  Wind and Runways
Indicated Runway = 1
History
 
 
More Info
All DigiWx sites map
NOAA Forecast
 
Airport IQ 5010
(FLV) Sherman Airfield
(GRE) Greenville
 
about DigiWx
 
FAA Disclaimer: The data displayed is for advisory purposes only and is not to be used for flight planning or operations. For official data, please call 785-448-3254 to hear the current automated AWOS voice message.
  METAR K68 211400Z AUTO 36003KT 10SM 19/14 A3018